STARLINK-34634, 65079

Orbit data source: Space-Track

STARLINK-34634, 65079 is a payload satellite owned by SpaceX/Seattle (US) in LEO that was launched on Mon, 04 Aug 2025 UTC via an FALCON 9 launch vehicle from the Air Force Eastern Test Range (AFETR). Payload-class satellites include a variety of spacecraft equipped with specific instruments for various scientific and technological missions. These include communications satellites like Starlink; space stations such as the ISS; scientific satellites like the Hubble; Earth observation satellites from companies like Planet Labs, Umbra, and HawkEye 360; GPS; miniature CubeSats for education and research; and military/defense satellites.

Loading next visibility...
Identifier
65079, 2025-167B
Orbit
LEO
Country
Flag of USUS
Related business
Manufacturer
SpaceX/Seattle
Mission
Operational spacecraft
Bus & Motor
STARLINK V2MO, Unknown motor
Mass
575 kg wet, ~530 kg dry
Launch date (UTC)
2025-08-04 (1 month ago)
Launch vehicle
FALCON 9
Launch site
Air Force Eastern Test Range (AFETR)
Object type
Payload
Rocket body
Debris
Shape & HBR
Unknown
Radar Cross Section
Large (>1 m²)

Expand to show TLE details & history
Last TLE update: 9 hours ago

TLE from 9 hours ago
0 STARLINK-34634
1 65079U 25167B   25243.25001157 -.01576646  00000-0 -30922-1 0  9999
2 65079  53.1592 195.3083 0001441  95.0773 350.0763 15.49796186  5504
Epoch: 2025-08-31T06:00Z
TLE epoch observation values (Epoch: 2025-08-31T06:00:00.999Z)
Latitude
53.03952°
Longitude
-152.43125°
Altitude
422.86 km
Speed
7.665 km/s
True Right ascension
18h 28m 58s
True Declination
52° 51' 58"
Sunlit
Object was in daylight at epoch
Visualization orbit readout
Latitude
Unknown
Longitude
Unknown
Altitude
Unknown
Speed
Unknown
Apparent Right ascension
Unknown
Apparent Declination
Unknown
Sunlit
N/A
Visualization observer readout
Local Sidereal Time
06:14:00
Azimuth
Unknown
Elevation
Unknown
Doppler factor
Unknown
Orbital elements
Apogee altitude
418.56 km
Perigee altitude
416.601 km
Semi-major axis
6,795.717 km
Eccentricity
0.00014
Inclination
53.1592°
RAAN
195.3083°
Arg. of periapsis
95.0773°
True anomaly
350.07345°
Mean anomaly
350.0763°
Eccentric anomaly
350.07488°
Mean motion
3.87427 °/min
Orbital period
92.92 mins
BSTAR
-0.030922
Loading maneuver chart data...
Computing Atmospheric mass density...
Loading historical data...
Loading historical data...
Loading historical data...
Loading historical data...
Loading historical data...
Loading historical data...
Loading historical data...

Documentation

Showing up to 5 results
|